User: anonymous   Login
Location: Carbonear
(47.7333°N, 53.2500°W)
Time: 08:17:24
(UTC+00:00)
Language:

TIGRISAT - Orbit

View from above orbital plane
View from above orbital plane
View from above satellite
View from above satellite

Ground track
Ground track

The orbit data is extracted from the following two-line orbital elements,

1 40043U 14033AK  22330.47774571  .00000896  00000-0  13569-3 0  9994
2 40043  97.6546 151.0558 0058672 352.7557   7.2799 14.75387468453512
Epoch (UTC): 26 November 2022 11:27:57
Eccentricity: 0.0058672
inclination: 97.6546°
perigee height: 603 km
apogee height: 685 km
right ascension of ascending node: 151.0558°
argument of perigee: 352.7557°
revolutions per day: 14.75387468
mean anomaly at epoch: 7.2799°
orbit number at epoch: 45351

The dashed part of the orbit path shows where the satellite is in the earth's shadow,  

DLR